Regional Weather Roundup
Issued by NWS

Home | Current Version | Previous Version | Graphics & Text | Print | Product List | Glossary On
Versions: 1 2 3 4 5 6 7 8 9 10 11 12 13 14 15 16 17 18 19 20 21 22 23 24 25 26 27 28 29 30 31 32 33 34 35 36 37 38 39 40 41 42 43 44 45 46 47 48 49 50
000
ASUS43 KLOT 011821
RWRIL

ILLINOIS REGIONAL WEATHER ROUNDUP
NATIONAL WEATHER SERVICE CHICAGO/ROMEOVILLE IL
100 PM CDT TUE SEP 01 2015

NOTE: "FAIR" INDICATES FEW OR NO CLOUDS BELOW 12,000 FEET WITH NO
SIGNIFICANT WEATHER AND/OR OBSTRUCTIONS TO VISIBILITY.

* THESE STATIONS ARE NOT UNDER NWS QUALITY CONTROL. THEY ALSO MAY NOT
  REPORT WEATHER SUCH AS PRECIPITATION OR FOG.

ILZ001-002-007-009-015-016-024-011900-
NORTHWEST ILLINOIS

CITY           SKY/WX    TMP DP  RH WIND       PRES   REMARKS
MOLINE         SUNNY     89  71  55 SW8       30.00F HX  95
6HR MIN TEMP:  71; 6HR MAX TEMP:  89;

STERLING*      MOSUNNY   90  73  58 W10       29.99F HX  98
SAVANNA*       SUNNY     88  69  53 SW10      30.00F HX  92
$$

ILZ003-004-008-010-011-017-018-011900-
NORTH CENTRAL ILLINOIS

CITY           SKY/WX    TMP DP  RH WIND       PRES   REMARKS
ROCKFORD       MOSUNNY   88  71  57 SW13      30.03F HX  94
6HR MIN TEMP:  69; 6HR MAX TEMP:  88;

FREEPORT*      SUNNY     85  73  68 S8        30.03F HX  92
ROCHELLE*      SUNNY     86  73  65 SW9       30.04F HX  93
DE KALB*       SUNNY     87  74  64 S12       30.05F HX  95
PERU*          MOSUNNY   89  68  50 SW12      30.04F HX  93
$$

ILZ005-006-012>014-019>023-011900-
NORTHEAST ILLINOIS

CITY           SKY/WX    TMP DP  RH WIND       PRES   REMARKS
CHICAGO-OHARE  MOSUNNY   87  72  60 S12G17    30.03F HX  93
6HR MIN TEMP:  71; 6HR MAX TEMP:  87;

CHICAGO-MIDWAY PTSUNNY   87  73  62 S14G23    30.04F HX  94
6HR MIN TEMP:  74; 6HR MAX TEMP:  88;

AURORA         SUNNY     87  73  62 S10       30.04F HX  94
6HR MIN TEMP:  69; 6HR MAX TEMP:  87;

LANSING*       MOSUNNY   81  70  69 SW13G18   30.07F HX  84
JOLIET*        MOSUNNY   85  75  71 S7        30.05F HX  93
WAUKEGAN       PTSUNNY   83  73  72 SE9       30.02S HX  89
6HR MIN TEMP:  69; 6HR MAX TEMP:  86;

DUPAGE AIRPORT MOSUNNY   86  73  65 SW10      30.03F HX  93
6HR MIN TEMP:  70; 6HR MAX TEMP:  87; 6HR PCP: TRACE;

KANKAKEE*      MOSUNNY   83  71  67 S10G17    30.07F HX  88
WHEELING       MOSUNNY   88  71  57 SW12      30.03F HX  94
6HR MIN TEMP:  70; 6HR MAX TEMP:  88; 6HR PCP: TRACE;

MORRIS*        CLOUDY    83  75  77 S12       30.04F HX  89
ROMEOVILLE*    PTSUNNY   83  72  69 S16       30.05F HX  89
NORTHERLY ISL    N/A     84  70  62 S12         N/A  HX  88
$$

LMZ740>746-011900-
SOUTHERN LAKE MICHIGAN

STATION/POSITION SKY/WX   TEMP    WIND        PRES    VSBY  WAVE
                          AIR SEA DIR/SP/G                  HT/PER
                          (F)     (DEG/KT/KT) (MB)    (MI)  (FT/S)
SOUTHERN BUOY              72 70  180/ 14/ 16 1016.5F         1/ 3
WILMETTE HARBOR            70 62  310/ 10/ 12   N/A           1/ 2
HARRISON CRIB              79     170/ 17/ 20   N/A
BURNHAM HARBOR             84     190/ 11/ 15   N/A
CALUMET HARBOR             82     180/ 10/ 14   N/A
BURNS HARBOR               80     200/ 14/ 19 1018.6S
MICHIGAN CITY              81     150/ 12/ 14   N/A
MICHIGAN CITY 6N           76 72  240/ 12/ 16   N/A           1
ST. JOSEPH                 77 74  280/  4/  6   N/A           1
$$

ILZ025>027-034>036-040-047-049-050-058-095>099-011900-
WEST-CENTRAL ILLINOIS

CITY           SKY/WX    TMP DP  RH WIND       PRES   REMARKS
QUINCY         SUNNY     89  67  47 SW6       30.05F HX  92
GALESBURG*     SUNNY     88  71  57 S10       30.04F HX  94
MACOMB*        SUNNY     90  68  47 SW6       30.06F HX  94
JACKSONVILLE*  SUNNY     91  71  50 S7        30.06F HX  98
PITTSFIELD*    SUNNY     89  69  51 S7        30.07F HX  94
$$

ILZ028>032-037-038-041>044-048-051>054-059>061-011900-
CENTRAL ILLINOIS

CITY           SKY/WX    TMP DP  RH WIND       PRES   REMARKS
PONTIAC        SUNNY     83  74  74 S12G17    30.07F HX  90
BLOOMINGTON    MOSUNNY   85  74  69 S14       30.08F HX  92
DECATUR        SUNNY     87  71  58 S10       30.08F HX  93
PEORIA         SUNNY     91  71  51 VRB6      30.04F HX  97
6HR MIN TEMP:  73; 6HR MAX TEMP:  91;

LACON*         SUNNY     87  71  58 W3        30.03F HX  93
LINCOLN*       SUNNY     92  68  45 SW3       30.05F HX  96
SPRINGFIELD    SUNNY     90  72  55 S6        30.06F HX  97
6HR MIN TEMP:  73; 6HR MAX TEMP:  91;

TAYLORVILLE    MOSUNNY   88  70  55 S6        30.07F HX  92
$$

ILZ033-039-045-046-055>057-062-063-011900-
EAST-CENTRAL ILLINOIS

CITY           SKY/WX    TMP DP  RH WIND       PRES   REMARKS
CHAMPAIGN      CLOUDY    77  70  79 E3        30.11F
RANTOUL*       CLOUDY    74  70  88 S3        30.10F
MATTOON        MOSUNNY   83  68  60 S9        30.09F HX  86
PARIS*         LGT RAIN  73  71  93 E5        30.11F
$$

ILZ079-100>102-011900-
SOUTHWEST ILLINOIS

CITY           SKY/WX    TMP DP  RH WIND       PRES   REMARKS
ALTON          SUNNY     86  72  62 S7        30.09F HX  92
BELLEVILLE     SUNNY     89  73  60 VRB2      30.07F HX  97
CAHOKIA*       SUNNY     89  68  49 VRB5      30.08F HX  93
SPARTA*        MOSUNNY   86  72  63 S5        30.11S HX  92
$$

ILZ064>066-069>071-074>076-080>082-084>086-088>090-092>094-011900-
SOUTH-CENTRAL ILLINOIS

CITY           SKY/WX    TMP DP  RH WIND       PRES   REMARKS
CARBONDALE     SUNNY     86  68  54 S9        30.11F HX  89
6HR MIN TEMP:  66; 6HR MAX TEMP:  86;

CAIRO*         MOSUNNY   85  74  68 SE7       30.11F HX  93
EFFINGHAM*     SUNNY     86  67  52 S6        30.12F HX  88
MARION         MOSUNNY   88  70  55 S9        30.12F HX  92
MT. VERNON     SUNNY     90  70  51 S8        30.11F HX  95
CENTRALIA*     MOSUNNY   89  72  57 S6        30.10S HX  95
SALEM*         MOSUNNY   87  69  54 W3        30.10F HX  91
METROPOLIS*    SUNNY     87  71  59 S5        30.12F HX  93
$$

ILZ067-068-072-073-078-083-087-091-011900-
SOUTHEAST ILLINOIS

CITY           SKY/WX    TMP DP  RH WIND       PRES   REMARKS
LAWRENCEVILLE  PTSUNNY   85  65  51 CALM      30.13F HX  86
FLORA*         SUNNY     87  67  51 CALM      30.11F HX  90
FAIRFIELD*     MOSUNNY   87  71  58 SW3       30.10F HX  92
HARRISBURG*    MOSUNNY   87  69  54 SW7       30.12S HX  91
ROBINSON*      PTSUNNY   80  69  68 SW3       30.12F HX  83
CARMI*         SUNNY     86  70  58 CALM      30.11S HX  91
$$

ABBREVIATIONS USED IN REMARKS
   TC - TEMPERATURE IN CELSIUS
  WCI - WIND CHILL INDEX
   HX - HEAT INDEX
  VSB - VISIBILITY
$$



USA.gov is the U.S. government's official web portal to all federal, state and local government web resources and services.